#datetime,building,power
2023-07-06T00:00:00,sdl,15.67
2023-07-06T00:01:00,sdl,10.74
2023-07-06T00:02:00,sdl,8.87
2023-07-06T00:03:00,sdl,8.91
2023-07-06T00:04:00,sdl,11.24
2023-07-06T00:05:00,sdl,11.05
2023-07-06T00:06:00,sdl,11.08
2023-07-06T00:07:00,sdl,11.06
2023-07-06T00:08:00,sdl,11.05
2023-07-06T00:09:00,sdl,11.19
2023-07-06T00:10:00,sdl,11.28
2023-07-06T00:11:00,sdl,11.17
2023-07-06T00:12:00,sdl,10.70
2023-07-06T00:13:00,sdl,10.68
2023-07-06T00:14:00,sdl,10.54
2023-07-06T00:15:00,sdl,10.59
2023-07-06T00:16:00,sdl,8.22
2023-07-06T00:17:00,sdl,8.25
2023-07-06T00:18:00,sdl,8.23
2023-07-06T00:19:00,sdl,8.18
2023-07-06T00:20:00,sdl,8.23
2023-07-06T00:21:00,sdl,7.06
2023-07-06T00:22:00,sdl,7.12
2023-07-06T00:23:00,sdl,6.94
2023-07-06T00:24:00,sdl,6.96
2023-07-06T00:25:00,sdl,6.90
2023-07-06T00:26:00,sdl,6.92
2023-07-06T00:27:00,sdl,6.95
2023-07-06T00:28:00,sdl,6.92
2023-07-06T00:29:00,sdl,6.93
2023-07-06T00:30:00,sdl,7.00
2023-07-06T00:31:00,sdl,6.99
2023-07-06T00:32:00,sdl,7.00
2023-07-06T00:33:00,sdl,7.08
2023-07-06T00:34:00,sdl,7.13
2023-07-06T00:35:00,sdl,7.20
2023-07-06T00:36:00,sdl,7.74
2023-07-06T00:37:00,sdl,7.82
2023-07-06T00:38:00,sdl,7.73
2023-07-06T00:39:00,sdl,9.99
2023-07-06T00:40:00,sdl,10.29
2023-07-06T00:41:00,sdl,9.91
2023-07-06T00:42:00,sdl,9.82
2023-07-06T00:43:00,sdl,9.95
2023-07-06T00:44:00,sdl,10.13
2023-07-06T00:45:00,sdl,10.14
2023-07-06T00:46:00,sdl,10.59
2023-07-06T00:47:00,sdl,10.62
2023-07-06T00:48:00,sdl,10.00
2023-07-06T00:49:00,sdl,10.16
2023-07-06T00:50:00,sdl,10.13
2023-07-06T00:51:00,sdl,10.12
2023-07-06T00:52:00,sdl,10.09
2023-07-06T00:53:00,sdl,10.11
2023-07-06T00:54:00,sdl,10.00
2023-07-06T00:55:00,sdl,10.00
2023-07-06T00:56:00,sdl,10.06
2023-07-06T00:57:00,sdl,7.78
2023-07-06T00:58:00,sdl,8.01
2023-07-06T00:59:00,sdl,7.99
2023-07-06T01:00:00,sdl,7.78
2023-07-06T01:01:00,sdl,7.15
2023-07-06T01:02:00,sdl,7.15
2023-07-06T01:03:00,sdl,7.20
2023-07-06T01:04:00,sdl,7.14
2023-07-06T01:05:00,sdl,7.13
2023-07-06T01:06:00,sdl,7.13
2023-07-06T01:07:00,sdl,7.42
2023-07-06T01:08:00,sdl,7.13
2023-07-06T01:09:00,sdl,7.35
2023-07-06T01:10:00,sdl,7.00
2023-07-06T01:11:00,sdl,7.19
2023-07-06T01:12:00,sdl,7.15
2023-07-06T01:13:00,sdl,6.82
2023-07-06T01:14:00,sdl,6.97
2023-07-06T01:15:00,sdl,6.97
2023-07-06T01:16:00,sdl,6.88
2023-07-06T01:17:00,sdl,6.92
2023-07-06T01:18:00,sdl,7.07
2023-07-06T01:19:00,sdl,6.84
2023-07-06T01:20:00,sdl,9.36
2023-07-06T01:21:00,sdl,9.40
2023-07-06T01:22:00,sdl,9.36
2023-07-06T01:23:00,sdl,9.87
2023-07-06T01:24:00,sdl,9.83
2023-07-06T01:25:00,sdl,9.11
2023-07-06T01:26:00,sdl,9.15
2023-07-06T01:27:00,sdl,9.28
2023-07-06T01:28:00,sdl,9.23
2023-07-06T01:29:00,sdl,9.28
2023-07-06T01:30:00,sdl,7.03
2023-07-06T01:31:00,sdl,7.06
2023-07-06T01:32:00,sdl,7.36
2023-07-06T01:33:00,sdl,7.21
2023-07-06T01:34:00,sdl,7.18
2023-07-06T01:35:00,sdl,7.17
2023-07-06T01:36:00,sdl,7.41
2023-07-06T01:37:00,sdl,7.08
2023-07-06T01:38:00,sdl,7.06
2023-07-06T01:39:00,sdl,7.27
2023-07-06T01:40:00,sdl,7.15
2023-07-06T01:41:00,sdl,7.15
2023-07-06T01:42:00,sdl,7.20
2023-07-06T01:43:00,sdl,7.11
2023-07-06T01:44:00,sdl,9.37
2023-07-06T01:45:00,sdl,9.56
2023-07-06T01:46:00,sdl,9.43
2023-07-06T01:47:00,sdl,9.47
2023-07-06T01:48:00,sdl,9.51
2023-07-06T01:49:00,sdl,9.47
2023-07-06T01:50:00,sdl,9.31
2023-07-06T01:51:00,sdl,9.55
2023-07-06T01:52:00,sdl,9.49
2023-07-06T01:53:00,sdl,9.94
2023-07-06T01:54:00,sdl,9.87
2023-07-06T01:55:00,sdl,9.57
2023-07-06T01:56:00,sdl,9.50
2023-07-06T01:57:00,sdl,9.46
2023-07-06T01:58:00,sdl,9.60
2023-07-06T01:59:00,sdl,9.57
2023-07-06T02:00:00,sdl,9.63
2023-07-06T02:01:00,sdl,9.63
2023-07-06T02:02:00,sdl,10.21
2023-07-06T02:03:00,sdl,9.67
2023-07-06T02:04:00,sdl,9.80
2023-07-06T02:05:00,sdl,9.79
2023-07-06T02:06:00,sdl,14.59
2023-07-06T02:07:00,sdl,14.89
2023-07-06T02:08:00,sdl,15.51
2023-07-06T02:09:00,sdl,15.45
2023-07-06T02:10:00,sdl,18.00
2023-07-06T02:11:00,sdl,17.97
2023-07-06T02:12:00,sdl,18.23
2023-07-06T02:13:00,sdl,18.22
2023-07-06T02:14:00,sdl,18.60
2023-07-06T02:15:00,sdl,18.46
2023-07-06T02:16:00,sdl,18.59
2023-07-06T02:17:00,sdl,18.69
2023-07-06T02:18:00,sdl,18.76
2023-07-06T02:19:00,sdl,18.92
2023-07-06T02:20:00,sdl,19.02
2023-07-06T02:21:00,sdl,19.01
2023-07-06T02:22:00,sdl,19.08
2023-07-06T02:23:00,sdl,19.63
2023-07-06T02:24:00,sdl,19.76
2023-07-06T02:25:00,sdl,19.24
2023-07-06T02:26:00,sdl,19.26
2023-07-06T02:27:00,sdl,19.51
2023-07-06T02:28:00,sdl,19.20
2023-07-06T02:29:00,sdl,21.35
2023-07-06T02:30:00,sdl,21.29
2023-07-06T02:31:00,sdl,21.38
2023-07-06T02:32:00,sdl,21.48
2023-07-06T02:33:00,sdl,20.83
2023-07-06T02:34:00,sdl,20.76
2023-07-06T02:35:00,sdl,20.85
2023-07-06T02:36:00,sdl,20.81
2023-07-06T02:37:00,sdl,20.94
2023-07-06T02:38:00,sdl,21.03
2023-07-06T02:39:00,sdl,21.10
2023-07-06T02:40:00,sdl,21.25
2023-07-06T02:41:00,sdl,21.07
2023-07-06T02:42:00,sdl,20.94
2023-07-06T02:43:00,sdl,21.07
2023-07-06T02:44:00,sdl,21.03
2023-07-06T02:45:00,sdl,20.92
2023-07-06T02:46:00,sdl,18.82
2023-07-06T02:47:00,sdl,18.79
2023-07-06T02:48:00,sdl,18.77
2023-07-06T02:49:00,sdl,18.76
2023-07-06T02:50:00,sdl,19.22
2023-07-06T02:51:00,sdl,18.88
2023-07-06T02:52:00,sdl,18.79
2023-07-06T02:53:00,sdl,18.77
2023-07-06T02:54:00,sdl,18.71
2023-07-06T02:55:00,sdl,18.68
2023-07-06T02:56:00,sdl,19.24
2023-07-06T02:57:00,sdl,18.98
2023-07-06T02:58:00,sdl,18.62
2023-07-06T02:59:00,sdl,18.63
2023-07-06T03:00:00,sdl,20.88
2023-07-06T03:01:00,sdl,21.01
2023-07-06T03:02:00,sdl,21.13
2023-07-06T03:03:00,sdl,20.93
2023-07-06T03:04:00,sdl,20.97
2023-07-06T03:05:00,sdl,20.90
2023-07-06T03:06:00,sdl,21.26
2023-07-06T03:07:00,sdl,21.04
2023-07-06T03:08:00,sdl,20.94
2023-07-06T03:09:00,sdl,20.96
2023-07-06T03:10:00,sdl,20.98
2023-07-06T03:11:00,sdl,20.82
2023-07-06T03:12:00,sdl,18.64
2023-07-06T03:13:00,sdl,18.74
2023-07-06T03:14:00,sdl,18.60
2023-07-06T03:15:00,sdl,18.51
2023-07-06T03:16:00,sdl,18.53
2023-07-06T03:17:00,sdl,18.60
2023-07-06T03:18:00,sdl,18.65
2023-07-06T03:19:00,sdl,18.59
2023-07-06T03:20:00,sdl,18.64
2023-07-06T03:21:00,sdl,18.11
2023-07-06T03:22:00,sdl,18.54
2023-07-06T03:23:00,sdl,18.55
2023-07-06T03:24:00,sdl,18.49
2023-07-06T03:25:00,sdl,18.50
2023-07-06T03:26:00,sdl,18.49
2023-07-06T03:27:00,sdl,18.47
2023-07-06T03:28:00,sdl,18.84
2023-07-06T03:29:00,sdl,18.47
2023-07-06T03:30:00,sdl,18.51
2023-07-06T03:31:00,sdl,18.51
2023-07-06T03:32:00,sdl,18.42
2023-07-06T03:33:00,sdl,18.51
2023-07-06T03:34:00,sdl,20.90
2023-07-06T03:35:00,sdl,20.64
2023-07-06T03:36:00,sdl,20.67
2023-07-06T03:37:00,sdl,18.23
2023-07-06T03:38:00,sdl,18.14
2023-07-06T03:39:00,sdl,18.33
2023-07-06T03:40:00,sdl,18.30
2023-07-06T03:41:00,sdl,18.39
2023-07-06T03:42:00,sdl,18.64
2023-07-06T03:43:00,sdl,18.68
2023-07-06T03:44:00,sdl,18.56
2023-07-06T03:45:00,sdl,18.51
2023-07-06T03:46:00,sdl,21.11
2023-07-06T03:47:00,sdl,21.25
2023-07-06T03:48:00,sdl,21.05
2023-07-06T03:49:00,sdl,21.06
2023-07-06T03:50:00,sdl,21.02
2023-07-06T03:51:00,sdl,21.10
2023-07-06T03:52:00,sdl,18.79
2023-07-06T03:53:00,sdl,18.77
2023-07-06T03:54:00,sdl,19.21
2023-07-06T03:55:00,sdl,19.89
2023-07-06T03:56:00,sdl,19.56
2023-07-06T03:57:00,sdl,19.51
2023-07-06T03:58:00,sdl,19.58
2023-07-06T03:59:00,sdl,19.57
2023-07-06T04:00:00,sdl,17.16
2023-07-06T04:01:00,sdl,17.49
2023-07-06T04:02:00,sdl,16.69
2023-07-06T04:03:00,sdl,16.43
2023-07-06T04:04:00,sdl,16.26
2023-07-06T04:05:00,sdl,11.28
2023-07-06T04:06:00,sdl,8.89
2023-07-06T04:07:00,sdl,8.46
2023-07-06T04:08:00,sdl,8.53
2023-07-06T04:09:00,sdl,8.42
2023-07-06T04:10:00,sdl,8.33
2023-07-06T04:11:00,sdl,10.55
2023-07-06T04:12:00,sdl,10.85
2023-07-06T04:13:00,sdl,10.42
2023-07-06T04:14:00,sdl,10.28
2023-07-06T04:15:00,sdl,10.39
2023-07-06T04:16:00,sdl,10.50
2023-07-06T04:17:00,sdl,10.29
2023-07-06T04:18:00,sdl,8.74
2023-07-06T04:19:00,sdl,8.82
2023-07-06T04:20:00,sdl,8.63
2023-07-06T04:21:00,sdl,6.44
2023-07-06T04:22:00,sdl,6.35
2023-07-06T04:23:00,sdl,6.34
2023-07-06T04:24:00,sdl,6.36
2023-07-06T04:25:00,sdl,6.71
2023-07-06T04:26:00,sdl,6.91
2023-07-06T04:27:00,sdl,6.69
2023-07-06T04:28:00,sdl,6.35
2023-07-06T04:29:00,sdl,6.35
2023-07-06T04:30:00,sdl,6.53
2023-07-06T04:31:00,sdl,6.59
2023-07-06T04:32:00,sdl,7.26
2023-07-06T04:33:00,sdl,7.37
2023-07-06T04:34:00,sdl,7.40
2023-07-06T04:35:00,sdl,7.42
2023-07-06T04:36:00,sdl,7.31
2023-07-06T04:37:00,sdl,7.35
2023-07-06T04:38:00,sdl,9.42
2023-07-06T04:39:00,sdl,9.33
2023-07-06T04:40:00,sdl,9.54
2023-07-06T04:41:00,sdl,9.51
2023-07-06T04:42:00,sdl,9.49
2023-07-06T04:43:00,sdl,9.38
2023-07-06T04:44:00,sdl,9.59
2023-07-06T04:45:00,sdl,9.31
2023-07-06T04:46:00,sdl,9.50
2023-07-06T04:47:00,sdl,9.61
2023-07-06T04:48:00,sdl,9.66
2023-07-06T04:49:00,sdl,9.71
2023-07-06T04:50:00,sdl,9.73
2023-07-06T04:51:00,sdl,9.46
2023-07-06T04:52:00,sdl,9.62
2023-07-06T04:53:00,sdl,9.79
2023-07-06T04:54:00,sdl,9.72
2023-07-06T04:55:00,sdl,9.75
2023-07-06T04:56:00,sdl,7.94
2023-07-06T04:57:00,sdl,7.87
2023-07-06T04:58:00,sdl,7.68
2023-07-06T04:59:00,sdl,7.46
2023-07-06T05:00:00,sdl,7.49
2023-07-06T05:01:00,sdl,7.57
2023-07-06T05:02:00,sdl,7.55
2023-07-06T05:03:00,sdl,7.34
2023-07-06T05:04:00,sdl,7.15
2023-07-06T05:05:00,sdl,7.42
2023-07-06T05:06:00,sdl,7.29
2023-07-06T05:07:00,sdl,7.35
2023-07-06T05:08:00,sdl,7.23
2023-07-06T05:09:00,sdl,9.02
2023-07-06T05:10:00,sdl,9.62
2023-07-06T05:11:00,sdl,9.62
2023-07-06T05:12:00,sdl,9.85
2023-07-06T05:13:00,sdl,9.73
2023-07-06T05:14:00,sdl,14.54
2023-07-06T05:15:00,sdl,14.57
2023-07-06T05:16:00,sdl,14.94
2023-07-06T05:17:00,sdl,15.18
2023-07-06T05:18:00,sdl,17.71
2023-07-06T05:19:00,sdl,17.49
2023-07-06T05:20:00,sdl,17.63
2023-07-06T05:21:00,sdl,17.57
2023-07-06T05:22:00,sdl,17.69
2023-07-06T05:23:00,sdl,20.30
2023-07-06T05:24:00,sdl,19.91
2023-07-06T05:25:00,sdl,20.29
2023-07-06T05:26:00,sdl,20.56
2023-07-06T05:27:00,sdl,20.05
2023-07-06T05:28:00,sdl,20.21
2023-07-06T05:29:00,sdl,20.41
2023-07-06T05:30:00,sdl,20.62
2023-07-06T05:31:00,sdl,20.60
2023-07-06T05:32:00,sdl,20.78
2023-07-06T05:33:00,sdl,20.97
2023-07-06T05:34:00,sdl,20.86
2023-07-06T05:35:00,sdl,20.86
2023-07-06T05:36:00,sdl,20.78
2023-07-06T05:37:00,sdl,18.50
2023-07-06T05:38:00,sdl,18.36
2023-07-06T05:39:00,sdl,18.36
2023-07-06T05:40:00,sdl,18.46
2023-07-06T05:41:00,sdl,18.55
2023-07-06T05:42:00,sdl,18.33
2023-07-06T05:43:00,sdl,18.37
2023-07-06T05:44:00,sdl,18.64
2023-07-06T05:45:00,sdl,18.32
2023-07-06T05:46:00,sdl,18.39
2023-07-06T05:47:00,sdl,18.38
2023-07-06T05:48:00,sdl,18.35
2023-07-06T05:49:00,sdl,18.41
2023-07-06T05:50:00,sdl,18.30
2023-07-06T05:51:00,sdl,18.33
2023-07-06T05:52:00,sdl,20.40
2023-07-06T05:53:00,sdl,20.46
2023-07-06T05:54:00,sdl,20.36
2023-07-06T05:55:00,sdl,20.62
2023-07-06T05:56:00,sdl,20.84
2023-07-06T05:57:00,sdl,20.71
2023-07-06T05:58:00,sdl,20.78
2023-07-06T05:59:00,sdl,20.54
2023-07-06T06:00:00,sdl,21.01
2023-07-06T06:01:00,sdl,20.80
2023-07-06T06:02:00,sdl,20.47
2023-07-06T06:03:00,sdl,20.53
2023-07-06T06:04:00,sdl,18.43
2023-07-06T06:05:00,sdl,18.48
2023-07-06T06:06:00,sdl,18.39
2023-07-06T06:07:00,sdl,18.40
2023-07-06T06:08:00,sdl,18.33
2023-07-06T06:09:00,sdl,16.17
2023-07-06T06:10:00,sdl,16.01
2023-07-06T06:11:00,sdl,15.92
2023-07-06T06:12:00,sdl,15.93
2023-07-06T06:13:00,sdl,15.90
2023-07-06T06:14:00,sdl,16.00
2023-07-06T06:15:00,sdl,15.98
2023-07-06T06:16:00,sdl,16.07
2023-07-06T06:17:00,sdl,15.94
2023-07-06T06:18:00,sdl,18.48
2023-07-06T06:19:00,sdl,18.45
2023-07-06T06:20:00,sdl,18.37
2023-07-06T06:21:00,sdl,18.32
2023-07-06T06:22:00,sdl,18.44
2023-07-06T06:23:00,sdl,18.46
2023-07-06T06:24:00,sdl,18.57
2023-07-06T06:25:00,sdl,18.35
2023-07-06T06:26:00,sdl,18.83
2023-07-06T06:27:00,sdl,18.79
2023-07-06T06:28:00,sdl,20.69
2023-07-06T06:29:00,sdl,20.58
2023-07-06T06:30:00,sdl,20.63
2023-07-06T06:31:00,sdl,20.37
2023-07-06T06:32:00,sdl,20.49
2023-07-06T06:33:00,sdl,20.27
2023-07-06T06:34:00,sdl,20.41
2023-07-06T06:35:00,sdl,20.25
2023-07-06T06:36:00,sdl,20.27
2023-07-06T06:37:00,sdl,20.23
2023-07-06T06:38:00,sdl,18.15
2023-07-06T06:39:00,sdl,17.97
2023-07-06T06:40:00,sdl,17.99
2023-07-06T06:41:00,sdl,17.93
2023-07-06T06:42:00,sdl,18.03
2023-07-06T06:43:00,sdl,13.67
2023-07-06T06:44:00,sdl,13.46
2023-07-06T06:45:00,sdl,12.06
2023-07-06T06:46:00,sdl,12.17
2023-07-06T06:47:00,sdl,9.96
2023-07-06T06:48:00,sdl,9.80
2023-07-06T06:49:00,sdl,9.85
2023-07-06T06:50:00,sdl,9.55
2023-07-06T06:51:00,sdl,9.56
2023-07-06T06:52:00,sdl,9.49
2023-07-06T06:53:00,sdl,8.57
2023-07-06T06:54:00,sdl,7.63
2023-07-06T06:55:00,sdl,7.64
2023-07-06T06:56:00,sdl,7.68
2023-07-06T06:57:00,sdl,8.10
2023-07-06T06:58:00,sdl,8.09
2023-07-06T06:59:00,sdl,8.21
2023-07-06T07:00:00,sdl,7.81
2023-07-06T07:01:00,sdl,7.83
2023-07-06T07:02:00,sdl,7.82
2023-07-06T07:03:00,sdl,7.83
2023-07-06T07:04:00,sdl,7.77
2023-07-06T07:05:00,sdl,7.74
2023-07-06T07:06:00,sdl,7.85
2023-07-06T07:07:00,sdl,8.20
2023-07-06T07:08:00,sdl,8.21
2023-07-06T07:09:00,sdl,10.89
2023-07-06T07:10:00,sdl,10.89
2023-07-06T07:11:00,sdl,12.27
2023-07-06T07:12:00,sdl,12.33
2023-07-06T07:13:00,sdl,12.69
2023-07-06T07:14:00,sdl,14.44
2023-07-06T07:15:00,sdl,13.78
2023-07-06T07:16:00,sdl,14.80
2023-07-06T07:17:00,sdl,14.89
2023-07-06T07:18:00,sdl,14.94
2023-07-06T07:19:00,sdl,15.67
2023-07-06T07:20:00,sdl,13.68
2023-07-06T07:21:00,sdl,13.77
2023-07-06T07:22:00,sdl,13.61
2023-07-06T07:23:00,sdl,17.89
2023-07-06T07:24:00,sdl,20.73
2023-07-06T07:25:00,sdl,20.39
2023-07-06T07:26:00,sdl,21.49
2023-07-06T07:27:00,sdl,21.81
2023-07-06T07:28:00,sdl,23.20
2023-07-06T07:29:00,sdl,25.43
2023-07-06T07:30:00,sdl,25.55
2023-07-06T07:31:00,sdl,25.81
2023-07-06T07:32:00,sdl,25.76
2023-07-06T07:33:00,sdl,25.84
2023-07-06T07:34:00,sdl,26.60
2023-07-06T07:35:00,sdl,26.78
2023-07-06T07:36:00,sdl,26.93
2023-07-06T07:37:00,sdl,27.00
2023-07-06T07:38:00,sdl,27.09
2023-07-06T07:39:00,sdl,27.02
2023-07-06T07:40:00,sdl,27.01
2023-07-06T07:41:00,sdl,27.02
2023-07-06T07:42:00,sdl,26.99
2023-07-06T07:43:00,sdl,26.90
2023-07-06T07:44:00,sdl,27.14
2023-07-06T07:45:00,sdl,27.16
2023-07-06T07:46:00,sdl,27.17
2023-07-06T07:47:00,sdl,27.19
2023-07-06T07:48:00,sdl,27.18
2023-07-06T07:49:00,sdl,27.22
2023-07-06T07:50:00,sdl,27.18
2023-07-06T07:51:00,sdl,27.13
2023-07-06T07:52:00,sdl,26.40
2023-07-06T07:53:00,sdl,26.36
2023-07-06T07:54:00,sdl,26.37
2023-07-06T07:55:00,sdl,26.68
2023-07-06T07:56:00,sdl,26.46
2023-07-06T07:57:00,sdl,26.80
2023-07-06T07:58:00,sdl,26.65
2023-07-06T07:59:00,sdl,26.45
2023-07-06T08:00:00,sdl,26.23
2023-07-06T08:01:00,sdl,26.18
2023-07-06T08:02:00,sdl,26.09
2023-07-06T08:03:00,sdl,26.11
2023-07-06T08:04:00,sdl,26.10
2023-07-06T08:05:00,sdl,25.99
2023-07-06T08:06:00,sdl,25.87
2023-07-06T08:07:00,sdl,26.04
2023-07-06T08:08:00,sdl,25.95
2023-07-06T08:09:00,sdl,26.04
2023-07-06T08:10:00,sdl,26.06
2023-07-06T08:11:00,sdl,26.08
2023-07-06T08:12:00,sdl,26.11
2023-07-06T08:13:00,sdl,26.12
2023-07-06T08:14:00,sdl,26.19
2023-07-06T08:15:00,sdl,26.20
2023-07-06T08:16:00,sdl,26.20
2023-07-06T08:17:00,sdl,26.24
2023-07-06T08:18:00,sdl,26.96
2023-07-06T08:19:00,sdl,26.95
2023-07-06T08:20:00,sdl,27.00
2023-07-06T08:21:00,sdl,26.95
2023-07-06T08:22:00,sdl,26.38
2023-07-06T08:23:00,sdl,23.20
2023-07-06T08:24:00,sdl,21.24
2023-07-06T08:25:00,sdl,21.23
2023-07-06T08:26:00,sdl,21.24
2023-07-06T08:27:00,sdl,21.17
2023-07-06T08:28:00,sdl,21.61
2023-07-06T08:29:00,sdl,21.72
2023-07-06T08:30:00,sdl,21.80
2023-07-06T08:31:00,sdl,21.10
2023-07-06T08:32:00,sdl,22.13
2023-07-06T08:33:00,sdl,21.25
2023-07-06T08:34:00,sdl,21.11
2023-07-06T08:35:00,sdl,18.78
2023-07-06T08:36:00,sdl,18.73
2023-07-06T08:37:00,sdl,16.51
2023-07-06T08:38:00,sdl,16.49
2023-07-06T08:39:00,sdl,16.58
2023-07-06T08:40:00,sdl,12.14
2023-07-06T08:41:00,sdl,12.15
2023-07-06T08:42:00,sdl,10.68
2023-07-06T08:43:00,sdl,10.11
2023-07-06T08:44:00,sdl,9.99
2023-07-06T08:45:00,sdl,10.22
2023-07-06T08:46:00,sdl,10.56
2023-07-06T08:47:00,sdl,9.85
2023-07-06T08:48:00,sdl,9.56
2023-07-06T08:49:00,sdl,9.46
2023-07-06T08:50:00,sdl,11.67
2023-07-06T08:51:00,sdl,11.94
2023-07-06T08:52:00,sdl,11.52
2023-07-06T08:53:00,sdl,11.47
2023-07-06T08:54:00,sdl,11.35
2023-07-06T08:55:00,sdl,11.93
2023-07-06T08:56:00,sdl,12.90
2023-07-06T08:57:00,sdl,15.75
2023-07-06T08:58:00,sdl,17.37
2023-07-06T08:59:00,sdl,15.28
2023-07-06T09:00:00,sdl,15.42
2023-07-06T09:01:00,sdl,15.26
2023-07-06T09:02:00,sdl,14.77
2023-07-06T09:03:00,sdl,12.37
2023-07-06T09:04:00,sdl,12.63
2023-07-06T09:05:00,sdl,12.39
2023-07-06T09:06:00,sdl,13.74
2023-07-06T09:07:00,sdl,13.11
2023-07-06T09:08:00,sdl,12.25
2023-07-06T09:09:00,sdl,12.39
2023-07-06T09:10:00,sdl,12.39
2023-07-06T09:11:00,sdl,12.34
2023-07-06T09:12:00,sdl,12.38
2023-07-06T09:13:00,sdl,12.46
2023-07-06T09:14:00,sdl,13.11
2023-07-06T09:15:00,sdl,13.24
2023-07-06T09:16:00,sdl,18.49
2023-07-06T09:17:00,sdl,18.37
2023-07-06T09:18:00,sdl,22.80
2023-07-06T09:19:00,sdl,23.02
2023-07-06T09:20:00,sdl,23.66
2023-07-06T09:21:00,sdl,23.85
2023-07-06T09:22:00,sdl,23.90
2023-07-06T09:23:00,sdl,23.93
2023-07-06T09:24:00,sdl,26.28
2023-07-06T09:25:00,sdl,26.30
2023-07-06T09:26:00,sdl,26.39
2023-07-06T09:27:00,sdl,26.95
2023-07-06T09:28:00,sdl,27.03
2023-07-06T09:29:00,sdl,27.01
2023-07-06T09:30:00,sdl,26.99
2023-07-06T09:31:00,sdl,27.06
2023-07-06T09:32:00,sdl,27.03
2023-07-06T09:33:00,sdl,27.06
2023-07-06T09:34:00,sdl,27.14
2023-07-06T09:35:00,sdl,26.98
2023-07-06T09:36:00,sdl,27.06
2023-07-06T09:37:00,sdl,27.09
2023-07-06T09:38:00,sdl,27.11
2023-07-06T09:39:00,sdl,27.19
2023-07-06T09:40:00,sdl,27.08
2023-07-06T09:41:00,sdl,27.15
2023-07-06T09:42:00,sdl,27.01
2023-07-06T09:43:00,sdl,27.07
2023-07-06T09:44:00,sdl,26.31
2023-07-06T09:45:00,sdl,26.42
2023-07-06T09:46:00,sdl,26.48
2023-07-06T09:47:00,sdl,26.37
2023-07-06T09:48:00,sdl,26.38
2023-07-06T09:49:00,sdl,26.80
2023-07-06T09:50:00,sdl,26.78
2023-07-06T09:51:00,sdl,26.57
2023-07-06T09:52:00,sdl,26.35
2023-07-06T09:53:00,sdl,26.60
2023-07-06T09:54:00,sdl,26.65
2023-07-06T09:55:00,sdl,26.52
2023-07-06T09:56:00,sdl,26.34
2023-07-06T09:57:00,sdl,26.32
2023-07-06T09:58:00,sdl,26.45
2023-07-06T09:59:00,sdl,23.45
2023-07-06T10:00:00,sdl,23.45
2023-07-06T10:01:00,sdl,25.48
2023-07-06T10:02:00,sdl,24.88
2023-07-06T10:03:00,sdl,24.95
2023-07-06T10:04:00,sdl,24.85
2023-07-06T10:05:00,sdl,24.31
2023-07-06T10:06:00,sdl,24.98
2023-07-06T10:07:00,sdl,24.87
2023-07-06T10:08:00,sdl,24.90
2023-07-06T10:09:00,sdl,23.71
2023-07-06T10:10:00,sdl,24.58
2023-07-06T10:11:00,sdl,24.31
2023-07-06T10:12:00,sdl,24.26
2023-07-06T10:13:00,sdl,23.28
2023-07-06T10:14:00,sdl,22.19
2023-07-06T10:15:00,sdl,22.33
2023-07-06T10:16:00,sdl,22.03
2023-07-06T10:17:00,sdl,22.10
2023-07-06T10:18:00,sdl,22.11
2023-07-06T10:19:00,sdl,25.80
2023-07-06T10:20:00,sdl,25.79
2023-07-06T10:21:00,sdl,25.89
2023-07-06T10:22:00,sdl,25.99
2023-07-06T10:23:00,sdl,26.08
2023-07-06T10:24:00,sdl,26.03
2023-07-06T10:25:00,sdl,26.12
2023-07-06T10:26:00,sdl,26.83
2023-07-06T10:27:00,sdl,26.91
2023-07-06T10:28:00,sdl,26.91
2023-07-06T10:29:00,sdl,27.05
2023-07-06T10:30:00,sdl,27.14
2023-07-06T10:31:00,sdl,27.05
2023-07-06T10:32:00,sdl,26.67
2023-07-06T10:33:00,sdl,26.62
2023-07-06T10:34:00,sdl,26.67
2023-07-06T10:35:00,sdl,26.66
2023-07-06T10:36:00,sdl,26.49
2023-07-06T10:37:00,sdl,23.98
2023-07-06T10:38:00,sdl,22.53
2023-07-06T10:39:00,sdl,22.08
2023-07-06T10:40:00,sdl,22.08
2023-07-06T10:41:00,sdl,21.91
2023-07-06T10:42:00,sdl,21.89
2023-07-06T10:43:00,sdl,22.41
2023-07-06T10:44:00,sdl,21.45
2023-07-06T10:45:00,sdl,21.42
2023-07-06T10:46:00,sdl,21.68
2023-07-06T10:47:00,sdl,20.67
2023-07-06T10:48:00,sdl,20.73
2023-07-06T10:49:00,sdl,20.67
2023-07-06T10:50:00,sdl,21.71
2023-07-06T10:51:00,sdl,21.55
2023-07-06T10:52:00,sdl,21.34
2023-07-06T10:53:00,sdl,18.93
2023-07-06T10:54:00,sdl,21.70
2023-07-06T10:55:00,sdl,19.32
2023-07-06T10:56:00,sdl,18.70
2023-07-06T10:57:00,sdl,19.02
2023-07-06T10:58:00,sdl,20.46
2023-07-06T10:59:00,sdl,20.32
2023-07-06T11:00:00,sdl,20.56
2023-07-06T11:01:00,sdl,24.81
2023-07-06T11:02:00,sdl,24.63
2023-07-06T11:03:00,sdl,24.97
2023-07-06T11:04:00,sdl,25.11
2023-07-06T11:05:00,sdl,20.23
2023-07-06T11:06:00,sdl,18.49
2023-07-06T11:07:00,sdl,19.64
2023-07-06T11:08:00,sdl,19.30
2023-07-06T11:09:00,sdl,19.41
2023-07-06T11:10:00,sdl,19.48
2023-07-06T11:11:00,sdl,19.48
2023-07-06T11:12:00,sdl,21.74
2023-07-06T11:13:00,sdl,22.05
2023-07-06T11:14:00,sdl,21.78
2023-07-06T11:15:00,sdl,21.64
2023-07-06T11:16:00,sdl,21.51
2023-07-06T11:17:00,sdl,20.97
2023-07-06T11:18:00,sdl,20.83
2023-07-06T11:19:00,sdl,20.82
2023-07-06T11:20:00,sdl,21.01
2023-07-06T11:21:00,sdl,21.48
2023-07-06T11:22:00,sdl,20.76
2023-07-06T11:23:00,sdl,18.55
2023-07-06T11:24:00,sdl,18.89
2023-07-06T11:25:00,sdl,18.93
2023-07-06T11:26:00,sdl,19.11
2023-07-06T11:27:00,sdl,19.07
2023-07-06T11:28:00,sdl,19.14
2023-07-06T11:29:00,sdl,19.13
2023-07-06T11:30:00,sdl,18.98
2023-07-06T11:31:00,sdl,18.86
2023-07-06T11:32:00,sdl,19.40
2023-07-06T11:33:00,sdl,19.81
2023-07-06T11:34:00,sdl,20.04
2023-07-06T11:35:00,sdl,21.71
2023-07-06T11:36:00,sdl,21.74
2023-07-06T11:37:00,sdl,21.68
2023-07-06T11:38:00,sdl,21.27
2023-07-06T11:39:00,sdl,21.28
2023-07-06T11:40:00,sdl,20.99
2023-07-06T11:41:00,sdl,20.90
2023-07-06T11:42:00,sdl,20.80
2023-07-06T11:43:00,sdl,20.88
2023-07-06T11:44:00,sdl,20.91
2023-07-06T11:45:00,sdl,20.96
2023-07-06T11:46:00,sdl,20.87
2023-07-06T11:47:00,sdl,20.75
2023-07-06T11:48:00,sdl,20.87
2023-07-06T11:49:00,sdl,20.85
2023-07-06T11:50:00,sdl,20.79
2023-07-06T11:51:00,sdl,20.87
2023-07-06T11:52:00,sdl,20.82
2023-07-06T11:53:00,sdl,20.81
2023-07-06T11:54:00,sdl,20.80
2023-07-06T11:55:00,sdl,21.18
2023-07-06T11:56:00,sdl,21.18
2023-07-06T11:57:00,sdl,22.01
2023-07-06T11:58:00,sdl,22.29
2023-07-06T11:59:00,sdl,22.25
2023-07-06T12:00:00,sdl,20.39
2023-07-06T12:01:00,sdl,21.11
2023-07-06T12:02:00,sdl,21.59
2023-07-06T12:03:00,sdl,20.08
2023-07-06T12:04:00,sdl,19.35
2023-07-06T12:05:00,sdl,19.37
2023-07-06T12:06:00,sdl,19.76
2023-07-06T12:07:00,sdl,19.80
2023-07-06T12:08:00,sdl,19.95
2023-07-06T12:09:00,sdl,19.60
2023-07-06T12:10:00,sdl,19.93
2023-07-06T12:11:00,sdl,19.65
2023-07-06T12:12:00,sdl,19.68
2023-07-06T12:13:00,sdl,19.66
2023-07-06T12:14:00,sdl,19.79
2023-07-06T12:15:00,sdl,19.76
2023-07-06T12:16:00,sdl,19.78
2023-07-06T12:17:00,sdl,19.78
2023-07-06T12:18:00,sdl,19.44
2023-07-06T12:19:00,sdl,19.95
2023-07-06T12:20:00,sdl,19.97
2023-07-06T12:21:00,sdl,19.91
2023-07-06T12:22:00,sdl,20.45
2023-07-06T12:23:00,sdl,20.49
2023-07-06T12:24:00,sdl,18.16
2023-07-06T12:25:00,sdl,18.23
2023-07-06T12:26:00,sdl,20.17
2023-07-06T12:27:00,sdl,19.82
2023-07-06T12:28:00,sdl,19.77
2023-07-06T12:29:00,sdl,15.28
2023-07-06T12:30:00,sdl,15.37
2023-07-06T12:31:00,sdl,13.56
2023-07-06T12:32:00,sdl,13.07
2023-07-06T12:33:00,sdl,13.38
2023-07-06T12:34:00,sdl,13.15
2023-07-06T12:35:00,sdl,13.12
2023-07-06T12:36:00,sdl,13.15
2023-07-06T12:37:00,sdl,13.07
2023-07-06T12:38:00,sdl,13.26
2023-07-06T12:39:00,sdl,13.61
2023-07-06T12:40:00,sdl,15.07
2023-07-06T12:41:00,sdl,14.27
2023-07-06T12:42:00,sdl,13.26
2023-07-06T12:43:00,sdl,11.57
2023-07-06T12:44:00,sdl,11.29
2023-07-06T12:45:00,sdl,12.75
2023-07-06T12:46:00,sdl,11.69
2023-07-06T12:47:00,sdl,12.24
2023-07-06T12:48:00,sdl,11.85
2023-07-06T12:49:00,sdl,11.78
2023-07-06T12:50:00,sdl,12.27
2023-07-06T12:51:00,sdl,11.64
2023-07-06T12:52:00,sdl,11.61
2023-07-06T12:53:00,sdl,11.79
2023-07-06T12:54:00,sdl,12.24
2023-07-06T12:55:00,sdl,11.74
2023-07-06T12:56:00,sdl,14.35
2023-07-06T12:57:00,sdl,13.99
2023-07-06T12:58:00,sdl,14.29
2023-07-06T12:59:00,sdl,14.33
2023-07-06T13:00:00,sdl,14.54
2023-07-06T13:01:00,sdl,14.45
2023-07-06T13:02:00,sdl,14.81
2023-07-06T13:03:00,sdl,14.45
2023-07-06T13:04:00,sdl,14.30
2023-07-06T13:05:00,sdl,14.43
2023-07-06T13:06:00,sdl,14.53
2023-07-06T13:07:00,sdl,14.47
2023-07-06T13:08:00,sdl,14.56
2023-07-06T13:09:00,sdl,14.52
2023-07-06T13:10:00,sdl,12.35
2023-07-06T13:11:00,sdl,12.29
2023-07-06T13:12:00,sdl,12.36
2023-07-06T13:13:00,sdl,12.39
2023-07-06T13:14:00,sdl,12.88
2023-07-06T13:15:00,sdl,12.58
2023-07-06T13:16:00,sdl,12.06
2023-07-06T13:17:00,sdl,12.89
2023-07-06T13:18:00,sdl,13.30
2023-07-06T13:19:00,sdl,13.00
2023-07-06T13:20:00,sdl,13.41
2023-07-06T13:21:00,sdl,13.14
2023-07-06T13:22:00,sdl,17.89
2023-07-06T13:23:00,sdl,18.99
2023-07-06T13:24:00,sdl,18.65